Location: ??????
(30.5519°N, 47.7720°E)
Time: 17:43:27
(UTC+00:00)

Sakura Rocket - Pass Details

Date: 24 January 2021
Orbit: 476 x 1743 km, 28.7° (Epoch: 01 March)

Event Time Altitude Azimuth Distance (km) Brightness Sun altitude
Rises 16:27:57 0° 253° (WSW) 4,053 8.4 -27.8°
Reaches altitude 10° 16:31:13 10° 250° (WSW) 2,869 7.3 -28.5°
Enters shadow 16:37:16 58° 202° (SSW) 969 4.0 -29.8°
